Year,Month,Day,Hour,Minute,Value (Times are PST for temperature in C)
2014,07,27,09,45,16.10
2014,07,27,09,46,16.10
2014,07,27,09,47,16.20
2014,07,27,09,48,16.20
2014,07,27,09,49,16.20
2014,07,27,09,50,16.20
2014,07,27,09,51,16.20
2014,07,27,09,52,16.10
2014,07,27,09,53,16.00
2014,07,27,09,54,15.90
2014,07,27,09,55,15.90
2014,07,27,09,56,15.80
2014,07,27,09,57,15.70
2014,07,27,09,58,15.60
2014,07,27,09,59,15.60
2014,07,27,10,00,15.60
2014,07,27,10,01,15.50
2014,07,27,10,02,15.50
2014,07,27,10,03,15.40
2014,07,27,10,04,15.20
2014,07,27,10,05,15.00
2014,07,27,10,06,14.90
2014,07,27,10,07,14.80
2014,07,27,10,08,14.80
2014,07,27,10,09,14.70
2014,07,27,10,10,14.70
2014,07,27,10,11,14.70
2014,07,27,10,12,14.70
2014,07,27,10,13,14.70
2014,07,27,10,14,14.70
2014,07,27,10,15,14.80
2014,07,27,10,16,14.80
2014,07,27,10,17,14.90
2014,07,27,10,18,15.10
2014,07,27,10,19,15.20
2014,07,27,10,20,15.30
2014,07,27,10,21,15.40
2014,07,27,10,22,15.50
2014,07,27,10,23,15.50
2014,07,27,10,24,15.60
2014,07,27,10,25,15.60
2014,07,27,10,26,15.60
2014,07,27,10,27,15.60
2014,07,27,10,28,15.60
2014,07,27,10,29,15.60
2014,07,27,10,30,15.70
2014,07,27,10,31,15.80
2014,07,27,10,32,15.80
2014,07,27,10,33,15.80
2014,07,27,10,34,15.80
2014,07,27,10,35,15.90
2014,07,27,10,36,15.80
2014,07,27,10,37,15.80
2014,07,27,10,38,15.70
2014,07,27,10,39,15.60
2014,07,27,10,40,15.70
2014,07,27,10,41,15.60
2014,07,27,10,42,15.70
2014,07,27,10,43,15.70
2014,07,27,10,44,15.80
2014,07,27,10,45,15.80
2014,07,27,10,46,15.80
2014,07,27,10,47,15.90
2014,07,27,10,48,16.00
2014,07,27,10,49,16.10
2014,07,27,10,50,16.10
2014,07,27,10,51,16.10
2014,07,27,10,52,16.10
2014,07,27,10,53,16.10
2014,07,27,10,54,16.10
2014,07,27,10,55,16.10
2014,07,27,10,56,16.10
2014,07,27,10,57,16.20
2014,07,27,10,58,16.20
2014,07,27,10,59,16.30
2014,07,27,11,00,16.30
2014,07,27,11,01,16.30
2014,07,27,11,02,16.20
2014,07,27,11,03,16.10
2014,07,27,11,04,16.10
2014,07,27,11,05,16.10
2014,07,27,11,06,16.00
2014,07,27,11,07,15.90
2014,07,27,11,08,15.90
2014,07,27,11,09,16.00
2014,07,27,11,10,16.00
2014,07,27,11,11,16.00
2014,07,27,11,12,16.10
2014,07,27,11,13,16.10
2014,07,27,11,14,16.10
2014,07,27,11,15,16.10
2014,07,27,11,16,16.10
2014,07,27,11,17,16.10
2014,07,27,11,18,16.10
2014,07,27,11,19,16.10
2014,07,27,11,20,16.20
2014,07,27,11,21,16.20
2014,07,27,11,22,16.10
2014,07,27,11,23,16.10
2014,07,27,11,24,16.10
2014,07,27,11,25,16.10
2014,07,27,11,26,16.10
2014,07,27,11,27,16.10
2014,07,27,11,28,16.10
2014,07,27,11,29,16.10
2014,07,27,11,30,16.10
2014,07,27,11,31,16.10
2014,07,27,11,32,16.10
2014,07,27,11,33,16.10
2014,07,27,11,34,16.10
2014,07,27,11,35,16.10
2014,07,27,11,36,16.10
2014,07,27,11,37,16.00
2014,07,27,11,38,16.00
2014,07,27,11,39,16.10
2014,07,27,11,40,16.10
2014,07,27,11,41,15.90
2014,07,27,11,42,15.90
2014,07,27,11,43,15.90
2014,07,27,11,44,15.80
2014,07,27,11,45,15.90
2014,07,27,11,46,16.00
2014,07,27,11,47,16.10
2014,07,27,11,48,16.10
2014,07,27,11,49,16.10
2014,07,27,11,50,16.10
2014,07,27,11,51,16.10
2014,07,27,11,52,16.10
2014,07,27,11,53,16.10
2014,07,27,11,54,16.20
2014,07,27,11,55,16.30
2014,07,27,11,56,16.40
2014,07,27,11,57,16.40
2014,07,27,11,58,16.50
2014,07,27,11,59,16.60
2014,07,27,12,00,16.60
2014,07,27,12,01,16.60
2014,07,27,12,02,16.60
2014,07,27,12,03,16.60
2014,07,27,12,04,16.60
2014,07,27,12,05,16.40
2014,07,27,12,06,16.40
2014,07,27,12,07,16.30
2014,07,27,12,08,16.30
2014,07,27,12,09,16.30
2014,07,27,12,10,16.30
2014,07,27,12,11,16.20
2014,07,27,12,12,16.10
2014,07,27,12,13,15.90
2014,07,27,12,14,15.80
2014,07,27,12,15,15.80
2014,07,27,12,16,15.80
2014,07,27,12,17,15.80
2014,07,27,12,18,15.80
2014,07,27,12,19,15.80
2014,07,27,12,20,15.80
2014,07,27,12,21,15.90
2014,07,27,12,22,16.00
2014,07,27,12,23,16.20
2014,07,27,12,24,16.40
2014,07,27,12,25,16.70
2014,07,27,12,26,16.80
2014,07,27,12,27,16.80
2014,07,27,12,28,16.70
2014,07,27,12,29,16.80
2014,07,27,12,30,16.90
2014,07,27,12,31,17.00
2014,07,27,12,32,17.10
2014,07,27,12,33,17.30
2014,07,27,12,34,17.50
2014,07,27,12,35,17.80
2014,07,27,12,36,17.90
2014,07,27,12,37,18.10
2014,07,27,12,38,18.20
2014,07,27,12,39,18.50
2014,07,27,12,40,18.70
2014,07,27,12,41,18.90
2014,07,27,12,42,19.10
2014,07,27,12,43,19.30
2014,07,27,12,44,19.40
2014,07,27,12,45,19.50
2014,07,27,12,46,19.60
2014,07,27,12,47,19.40
2014,07,27,12,48,19.40
2014,07,27,12,49,19.30
2014,07,27,12,50,19.30
2014,07,27,12,51,19.30
2014,07,27,12,52,19.30
2014,07,27,12,53,19.30
2014,07,27,12,54,19.30
2014,07,27,12,55,19.30
2014,07,27,12,56,19.40
2014,07,27,12,57,19.50
2014,07,27,12,58,19.60
2014,07,27,12,59,19.60
2014,07,27,13,00,19.70
2014,07,27,13,01,19.60
2014,07,27,13,02,19.60
2014,07,27,13,03,19.60
2014,07,27,13,04,19.60
2014,07,27,13,05,19.60
2014,07,27,13,06,19.40
2014,07,27,13,07,19.40
2014,07,27,13,08,19.40
2014,07,27,13,09,19.40
2014,07,27,13,10,19.30
2014,07,27,13,11,19.30
2014,07,27,13,12,19.20
2014,07,27,13,13,19.20
2014,07,27,13,14,19.20
2014,07,27,13,15,19.30
2014,07,27,13,16,19.40
2014,07,27,13,17,19.50
2014,07,27,13,18,19.60
2014,07,27,13,19,19.70
2014,07,27,13,20,19.70
2014,07,27,13,21,19.70
2014,07,27,13,22,19.70
2014,07,27,13,23,19.60
2014,07,27,13,24,19.70
2014,07,27,13,25,19.70
2014,07,27,13,26,19.70
2014,07,27,13,27,19.70
2014,07,27,13,28,19.70
2014,07,27,13,29,19.70
2014,07,27,13,30,19.90
2014,07,27,13,31,19.90
2014,07,27,13,32,19.90
2014,07,27,13,33,20.10
2014,07,27,13,34,20.20
2014,07,27,13,35,20.20
2014,07,27,13,36,20.20
2014,07,27,13,37,20.20
2014,07,27,13,38,20.10
2014,07,27,13,39,20.00
2014,07,27,13,40,20.00
2014,07,27,13,41,20.10
2014,07,27,13,42,20.10
2014,07,27,13,43,20.00
2014,07,27,13,44,19.90
2014,07,27,13,45,19.90
2014,07,27,13,46,19.90
2014,07,27,13,47,19.90
2014,07,27,13,48,19.90
2014,07,27,13,49,19.90
2014,07,27,13,50,20.00
2014,07,27,13,51,20.10
2014,07,27,13,52,19.90
2014,07,27,13,53,19.90
2014,07,27,13,54,19.80
2014,07,27,13,55,20.00
2014,07,27,13,56,20.10
2014,07,27,13,57,20.20
2014,07,27,13,58,20.20
2014,07,27,13,59,20.20
2014,07,27,14,00,20.20
2014,07,27,14,01,20.30
2014,07,27,14,02,20.30
2014,07,27,14,03,20.30
2014,07,27,14,04,20.20
2014,07,27,14,05,20.30
2014,07,27,14,06,20.50
2014,07,27,14,07,20.60
2014,07,27,14,08,20.80
2014,07,27,14,09,20.80
2014,07,27,14,10,20.80
2014,07,27,14,11,20.80
2014,07,27,14,12,20.80
2014,07,27,14,13,20.80
2014,07,27,14,14,20.80
2014,07,27,14,15,20.70
2014,07,27,14,16,20.70
2014,07,27,14,17,20.60
2014,07,27,14,18,20.60
2014,07,27,14,19,20.60
2014,07,27,14,20,20.50
2014,07,27,14,21,20.50
2014,07,27,14,22,20.60
2014,07,27,14,23,20.60
2014,07,27,14,24,20.70
2014,07,27,14,25,20.70
2014,07,27,14,26,20.70
2014,07,27,14,27,20.80
2014,07,27,14,28,21.00
2014,07,27,14,29,21.20
2014,07,27,14,30,21.40
2014,07,27,14,31,21.50
2014,07,27,14,32,21.60
2014,07,27,14,33,21.80
2014,07,27,14,34,21.90
2014,07,27,14,35,21.80
2014,07,27,14,36,21.60
2014,07,27,14,37,21.60
2014,07,27,14,38,21.50
2014,07,27,14,39,21.40
2014,07,27,14,40,21.30
2014,07,27,14,41,21.10
2014,07,27,14,42,20.90
2014,07,27,14,43,20.80
2014,07,27,14,44,20.70
2014,07,27,14,45,20.60
2014,07,27,14,46,20.50
2014,07,27,14,47,20.60
2014,07,27,14,48,20.60
2014,07,27,14,49,20.60
2014,07,27,14,50,20.50
2014,07,27,14,51,20.50
2014,07,27,14,52,20.60
2014,07,27,14,53,20.60
2014,07,27,14,54,20.60
2014,07,27,14,55,20.70
2014,07,27,14,56,20.60
2014,07,27,14,57,20.50
2014,07,27,14,58,20.40
2014,07,27,14,59,20.50
2014,07,27,15,00,20.70
2014,07,27,15,01,20.90
2014,07,27,15,02,21.00
2014,07,27,15,03,21.00
2014,07,27,15,04,20.90
2014,07,27,15,05,20.80
2014,07,27,15,06,20.70
2014,07,27,15,07,20.70
2014,07,27,15,08,20.70
2014,07,27,15,09,20.60
2014,07,27,15,10,20.60
2014,07,27,15,11,20.60
2014,07,27,15,12,20.70
2014,07,27,15,13,20.80
2014,07,27,15,14,20.90
2014,07,27,15,15,21.00
2014,07,27,15,16,21.00
2014,07,27,15,17,21.10
2014,07,27,15,18,21.20
2014,07,27,15,19,21.30
2014,07,27,15,20,21.20
2014,07,27,15,21,21.10
2014,07,27,15,22,21.10
2014,07,27,15,23,21.10
2014,07,27,15,24,21.20
2014,07,27,15,25,21.20
2014,07,27,15,26,21.20
2014,07,27,15,27,21.20
2014,07,27,15,28,21.10
2014,07,27,15,29,21.10
2014,07,27,15,30,21.00
2014,07,27,15,31,21.00
2014,07,27,15,32,20.80
2014,07,27,15,33,20.70
2014,07,27,15,34,20.70
2014,07,27,15,35,20.70
2014,07,27,15,36,20.90
2014,07,27,15,37,20.90
2014,07,27,15,38,20.90
2014,07,27,15,39,20.90
2014,07,27,15,40,20.90
2014,07,27,15,41,20.90
2014,07,27,15,42,20.80
2014,07,27,15,43,20.80
2014,07,27,15,44,20.80
2014,07,27,15,45,20.80
2014,07,27,15,46,20.80
2014,07,27,15,47,20.90
2014,07,27,15,48,20.90
2014,07,27,15,49,20.90
2014,07,27,15,50,21.00
2014,07,27,15,51,21.00
2014,07,27,15,52,21.00
2014,07,27,15,53,20.90
2014,07,27,15,54,20.80
2014,07,27,15,55,20.70
2014,07,27,15,56,20.70
2014,07,27,15,57,20.70
2014,07,27,15,58,20.60
2014,07,27,15,59,20.60
2014,07,27,16,00,20.70
2014,07,27,16,01,20.70
2014,07,27,16,02,20.80
2014,07,27,16,03,20.90
2014,07,27,16,04,21.00
2014,07,27,16,05,21.00
2014,07,27,16,06,21.00
2014,07,27,16,07,20.90
2014,07,27,16,08,20.90
2014,07,27,16,09,20.80
2014,07,27,16,10,20.80
2014,07,27,16,11,20.60
2014,07,27,16,12,20.40
2014,07,27,16,13,20.20
2014,07,27,16,14,20.20
2014,07,27,16,15,20.20
2014,07,27,16,16,20.20
2014,07,27,16,17,20.30
2014,07,27,16,18,20.30
2014,07,27,16,19,20.40
2014,07,27,16,20,20.40
2014,07,27,16,21,20.50
2014,07,27,16,22,20.40
2014,07,27,16,23,20.40
2014,07,27,16,24,20.20
2014,07,27,16,25,20.20
2014,07,27,16,26,20.10
2014,07,27,16,27,20.10
2014,07,27,16,28,20.10
2014,07,27,16,29,20.10
2014,07,27,16,30,20.10
2014,07,27,16,31,20.10
2014,07,27,16,32,20.20
2014,07,27,16,33,20.20
2014,07,27,16,34,20.20
2014,07,27,16,35,20.20
2014,07,27,16,36,20.20
2014,07,27,16,37,20.20
2014,07,27,16,38,20.30
2014,07,27,16,39,20.30
2014,07,27,16,40,20.30
2014,07,27,16,41,20.30
2014,07,27,16,42,20.30
2014,07,27,16,43,20.20
2014,07,27,16,44,20.10
2014,07,27,16,45,20.10
2014,07,27,16,46,20.10
2014,07,27,16,47,20.10
2014,07,27,16,48,20.00
2014,07,27,16,49,19.90
2014,07,27,16,50,19.80
2014,07,27,16,51,19.70
2014,07,27,16,52,19.60
2014,07,27,16,53,19.50
2014,07,27,16,54,19.60
2014,07,27,16,55,19.50
2014,07,27,16,56,19.50
2014,07,27,16,57,19.50
2014,07,27,16,58,19.50
2014,07,27,16,59,19.60
2014,07,27,17,00,19.60
2014,07,27,17,01,19.50
2014,07,27,17,02,19.40
2014,07,27,17,03,19.40
2014,07,27,17,04,19.50
2014,07,27,17,05,19.60
2014,07,27,17,06,19.80
2014,07,27,17,07,20.00
2014,07,27,17,08,20.10
2014,07,27,17,09,20.20
2014,07,27,17,10,20.30
2014,07,27,17,11,20.30
2014,07,27,17,12,20.20
2014,07,27,17,13,20.20
2014,07,27,17,14,20.20
2014,07,27,17,15,20.10
2014,07,27,17,16,20.10
2014,07,27,17,17,20.10
2014,07,27,17,18,20.10
2014,07,27,17,19,20.00
2014,07,27,17,20,19.90
2014,07,27,17,21,19.90
2014,07,27,17,22,19.90
2014,07,27,17,23,20.00
2014,07,27,17,24,20.20
2014,07,27,17,25,20.20
2014,07,27,17,26,20.10
2014,07,27,17,27,19.90
2014,07,27,17,28,19.90
2014,07,27,17,29,19.80
2014,07,27,17,30,19.60
2014,07,27,17,31,19.70
2014,07,27,17,32,19.80
2014,07,27,17,33,19.90
2014,07,27,17,34,19.90
2014,07,27,17,35,20.00
2014,07,27,17,36,20.20
2014,07,27,17,37,20.20
2014,07,27,17,38,20.20
2014,07,27,17,39,20.20
2014,07,27,17,40,20.20
2014,07,27,17,41,20.20
2014,07,27,17,42,20.30
2014,07,27,17,43,20.40
2014,07,27,17,44,20.40
2014,07,27,17,45,20.40
2014,07,27,17,46,20.50
2014,07,27,17,47,20.60
2014,07,27,17,48,20.60
2014,07,27,17,49,20.70
2014,07,27,17,50,20.70
2014,07,27,17,51,20.80
2014,07,27,17,52,21.00
2014,07,27,17,53,21.20
2014,07,27,17,54,21.30
2014,07,27,17,55,21.50
2014,07,27,17,56,21.60
2014,07,27,17,57,21.60
2014,07,27,17,58,21.50
2014,07,27,17,59,21.40
2014,07,27,18,00,21.30
2014,07,27,18,01,21.30
2014,07,27,18,02,21.30
2014,07,27,18,03,21.30
2014,07,27,18,04,21.20
2014,07,27,18,05,21.20
2014,07,27,18,06,21.20
2014,07,27,18,07,21.20
2014,07,27,18,08,21.20
2014,07,27,18,09,21.30
2014,07,27,18,10,21.30
2014,07,27,18,11,21.30
2014,07,27,18,12,21.30
2014,07,27,18,13,21.30
2014,07,27,18,14,21.20
2014,07,27,18,15,21.20
2014,07,27,18,16,21.20
2014,07,27,18,17,21.20
2014,07,27,18,18,21.20
2014,07,27,18,19,21.20
2014,07,27,18,20,21.10
2014,07,27,18,21,21.00
2014,07,27,18,22,20.90
2014,07,27,18,23,20.70
2014,07,27,18,24,20.60
2014,07,27,18,25,20.40
2014,07,27,18,26,20.20
2014,07,27,18,27,19.90
2014,07,27,18,28,19.70
2014,07,27,18,29,19.50
2014,07,27,18,30,19.20
2014,07,27,18,31,18.90
2014,07,27,18,32,18.60
2014,07,27,18,33,18.30
2014,07,27,18,34,18.10
2014,07,27,18,35,17.90
2014,07,27,18,36,17.70
2014,07,27,18,37,17.60
2014,07,27,18,38,17.50
2014,07,27,18,39,17.40
2014,07,27,18,40,17.30
2014,07,27,18,41,17.20
2014,07,27,18,42,17.20
2014,07,27,18,43,17.20
2014,07,27,18,44,17.30
2014,07,27,18,45,17.30
2014,07,27,18,46,17.40
2014,07,27,18,47,17.50
2014,07,27,18,48,17.50
2014,07,27,18,49,17.50
2014,07,27,18,50,17.40
2014,07,27,18,51,17.30
2014,07,27,18,52,17.30
2014,07,27,18,53,17.30
2014,07,27,18,54,17.30
2014,07,27,18,55,17.30
2014,07,27,18,56,17.40
2014,07,27,18,57,17.40
2014,07,27,18,58,17.40
2014,07,27,18,59,17.40
2014,07,27,19,00,17.50
2014,07,27,19,01,17.50
2014,07,27,19,02,17.60
2014,07,27,19,03,17.70
2014,07,27,19,04,17.70
2014,07,27,19,05,17.60
2014,07,27,19,06,17.60
2014,07,27,19,07,17.60
2014,07,27,19,08,17.50
2014,07,27,19,09,17.50
2014,07,27,19,10,17.60
2014,07,27,19,11,17.60
2014,07,27,19,12,17.50
2014,07,27,19,13,17.50
2014,07,27,19,14,17.50
2014,07,27,19,15,17.50
2014,07,27,19,16,17.50
2014,07,27,19,17,17.50
2014,07,27,19,18,17.50
2014,07,27,19,19,17.50
2014,07,27,19,20,17.50
2014,07,27,19,21,17.40
2014,07,27,19,22,17.40
2014,07,27,19,23,17.30
2014,07,27,19,24,17.30
2014,07,27,19,25,17.30
2014,07,27,19,26,17.30
2014,07,27,19,27,17.10
2014,07,27,19,28,17.00
2014,07,27,19,29,17.00
2014,07,27,19,30,16.90
2014,07,27,19,31,16.80
2014,07,27,19,32,16.80
2014,07,27,19,33,16.80
2014,07,27,19,34,16.70
2014,07,27,19,35,16.70
2014,07,27,19,36,16.60
2014,07,27,19,37,16.50
2014,07,27,19,38,16.40
2014,07,27,19,39,16.30
2014,07,27,19,40,16.20
2014,07,27,19,41,16.10
2014,07,27,19,42,16.00
2014,07,27,19,43,15.90
2014,07,27,19,44,15.90
2014,07,27,19,45,15.90
2014,07,27,19,46,16.00
2014,07,27,19,47,16.10
2014,07,27,19,48,16.10
2014,07,27,19,49,16.10
2014,07,27,19,50,16.10
2014,07,27,19,51,16.10
2014,07,27,19,52,16.20
2014,07,27,19,53,16.20
2014,07,27,19,54,16.20
2014,07,27,19,55,16.20
2014,07,27,19,56,16.20
2014,07,27,19,57,16.20
2014,07,27,19,58,16.20
2014,07,27,19,59,16.20
2014,07,27,20,00,16.20
2014,07,27,20,01,16.20
2014,07,27,20,02,16.20
2014,07,27,20,03,16.10
2014,07,27,20,04,16.10
2014,07,27,20,05,16.00
2014,07,27,20,06,15.90
2014,07,27,20,07,15.90
2014,07,27,20,08,15.80
2014,07,27,20,09,15.80
2014,07,27,20,10,15.70
2014,07,27,20,11,15.70
2014,07,27,20,12,15.60
2014,07,27,20,13,15.60
2014,07,27,20,14,15.60
2014,07,27,20,15,15.50
2014,07,27,20,16,15.50
2014,07,27,20,17,15.50
2014,07,27,20,18,15.50
2014,07,27,20,19,15.50
2014,07,27,20,20,15.50
2014,07,27,20,21,15.50
2014,07,27,20,22,15.50
2014,07,27,20,23,15.50
2014,07,27,20,24,15.40
2014,07,27,20,25,15.40
2014,07,27,20,26,15.40
2014,07,27,20,27,15.30
2014,07,27,20,28,15.30
2014,07,27,20,29,15.30
2014,07,27,20,30,15.30
2014,07,27,20,31,15.30
2014,07,27,20,32,15.30
2014,07,27,20,33,15.20
2014,07,27,20,34,15.20
2014,07,27,20,35,15.20
2014,07,27,20,36,15.20
2014,07,27,20,37,15.10
2014,07,27,20,38,15.10
2014,07,27,20,39,15.10
2014,07,27,20,40,15.00
2014,07,27,20,41,15.00
2014,07,27,20,42,15.00
2014,07,27,20,43,14.90
2014,07,27,20,44,14.90
2014,07,27,20,45,14.80
2014,07,27,20,46,14.80
2014,07,27,20,47,14.80
2014,07,27,20,48,14.80
2014,07,27,20,49,14.80
2014,07,27,20,50,14.80
2014,07,27,20,51,14.70
2014,07,27,20,52,14.70
2014,07,27,20,53,14.70
2014,07,27,20,54,14.70
2014,07,27,20,55,14.60
2014,07,27,20,56,14.60
2014,07,27,20,57,14.60
2014,07,27,20,58,14.60
2014,07,27,20,59,14.60
2014,07,27,21,00,14.50
2014,07,27,21,01,14.50
2014,07,27,21,02,14.50
2014,07,27,21,03,14.50
2014,07,27,21,04,14.50
2014,07,27,21,05,14.50
2014,07,27,21,06,14.40
2014,07,27,21,07,14.40
2014,07,27,21,08,14.40
2014,07,27,21,09,14.40
2014,07,27,21,10,14.40
2014,07,27,21,11,14.40
2014,07,27,21,12,14.40
2014,07,27,21,13,14.40
2014,07,27,21,14,14.40
2014,07,27,21,15,14.30
2014,07,27,21,16,14.30
2014,07,27,21,17,14.30
2014,07,27,21,18,14.30
2014,07,27,21,19,14.30
2014,07,27,21,20,14.30
2014,07,27,21,21,14.30
2014,07,27,21,22,14.30
2014,07,27,21,23,14.30
2014,07,27,21,24,14.30
2014,07,27,21,25,14.30
2014,07,27,21,26,14.30
